SCP
0 0 0 0 0 0 0 0 0 0 0 0 0 0 0 0 0 0 0 0 0 0 0 0 0 0 0 0 0 0 0 0 0 0 0 0 0 0 0 0 0 0 0
0 0 0 0 0 0 0 0 0 0 0 0 0 0 0 0 0 0 0 0 0 0 0 0 0 0 0 0 0 0 0 0 0 0 0 0 0 0 0 0 0 0 0
0 0 0 0 0 0 0 0 0 0 0 0 0 0 0 0 0 0 0 0 0 0 0 0 0 0 0 0 0 0 0 0 0 0 0 0 0 0 0 0 0 0 0
0 0 0 0 0 0 0 0 0 0 0 0 0 0 0 0 0 0 0 0 0 0 0 0 0 0 0 0 0 0 0 0 0 0 0 0 0 0 0 0 0 0 0
0 0 0 0 0 0 0 0 0 0 0 0 0 0 0 0 0 0 0 0 0 0 0 0 0 0 0 0 0 0 0 0 0 0 0 0 0 0 0 0 0 0 0
0 0 0 0 0 0 0 0 0 0 0 0 0 0 0 0 0 0 0 0 0 0 0 0 0 0 0 0 0 0 0 0 0 0 0 0 0 0 0 0 0 0 0
0 0 0 0 0 0 0 0 0 0 0 0 0 0 0 0 0 0 0 0 0 0 0 0 0 0 0 0 0 0 0 0 0 0 0 0 0 0 0 0 0 0 0
0 0 0 0 0 0 0 0 0 0 0 0 0 0 0 0 0 0 0 0 0 0 0 0 0 0 0 0 0 0 0 0 0 0 0 0 0 0 0 0 0 0 0
0 0 0 0 0 0 0 0 0 0 0 0 0 0 0 0 0 0 0 0 0 0 0 0 0 0 0 0 0 0 0 0 0 0 0 0 0 0 0 0 0 0 0
0 0 0 0 0 0 0 0 0 0 0 0 0 0 0 0 0 0 0 0 0 0 0 0 0 0 0 0 0 0 0 0 0 0 0 0 0 0 0 0 0 0 0
0 0 0 0 0 0 0 0 0 0 0 0 0 0 0 0 0 0 0 0 0 0 0 0 0 0 0 0 0 0 0 0 0 0 0 0 0 0 0 0 0 0 0
0 0 0 0 0 0 0 0 0 0 0 0 0 0 0 0 0 0 0 0 0 0 0 0 0 0 0 0 0 0 0 0 0 0 0 0 0 0 0 0 0 0 0
0 0 0 0 0 0 0 0 0 0 0 0 0 0 0 0 0 0 0 0 0 0 0 0 0 0 0 0 0 0 0 0 0 0 0 0 0 0 0 0 0 0 0
0 0 0 0 0 0 0 0 0 0 0 0 0 0 0 0 0 0 0 0 0 0 0 0 0 0 0 0 0 0 0 0 0 0 0 0 0 0 0 0 0 0 0
0 0 0 0 0 0 0 0 0 0 0 0 0 0 0 0 0 0 0 0 0 0 0 0 0 0 0 0 0 0 0 0 0 0 0 0 0 0 0 0 0 0 0
0 0 0 0 0 0 0 0 0 0 0 0 0 0 0 0 0 0 0 0 0 0 0 0 0 0 0 0 0 0 0 0 0 0 0 0 0 0 0 0 0 0 0
0 0 0 0 0 0 0 0 0 0 0 0 0 0 0 0 0 0 0 0 0 0 0 0 0 0 0 0 0 0 0 0 0 0 0 0 0 0 0 0 0 0 0
0 0 0 0 0 0 0 0 0 0 0 0 0 0 0 0 0 0 0 0 0 0 0 0 0 0 0 0 0 0 0 0 0 0 0 0 0 0 0 0 0 0 0
0 0 0 0 0 0 0 0 0 0 0 0 0 0 0 0 0 0 0 0 0 0 0 0 0 0 0 0 0 0 0 0 0 0 0 0 0 0 0 0 0 0 0
0 0 0 0 0 0 0 0 0 0 0 0 0 0 0 0 0 0 0 0 0 0 0 0 0 0 0 0 0 0 0 0 0 0 0 0 0 0 0 0 0 0 0
0 0 0 0 0 0 0 0 0 0 0 0 0 0 0 0 0 0 0 0 0 0 0 0 0 0 0 0 0 0 0 0 0 0 0 0 0 0 0 0 0 0 0
0 0 0 0 0 0 0 0 0 0 0 0 0 0 0 0 0 0 0 0 0 0 0 0 0 0 0 0 0 0 0 0 0 0 0 0 0 0 0 0 0 0 0
0 0 0 0 0 0 0 0 0 0 0 0 0 0 0 0 0 0 0 0 0 0 0 0 0 0 0 0 0 0 0 0 0 0 0 0 0 0 0 0 0 0 0
0 0 0 0 0 0 0 0 0 0 0 0 0 0 0 0 0 0 0 0 0 0 0 0 0 0 0 0 0 0 0 0 0 0 0 0 0 0 0 0 0 0 0
0 0 0 0 0 0 0 0 0 0 0 0 0 0 0 0 0 0 0 0 0 0 0 0 0 0 0 0 0 0 0 0 0 0 0 0 0 0 0 0 0 0 0
0 0 0 0 0 0 0 0 0 0 0 0 0 0 0 0 0 0 0 0 0 0 0 0 0 0 0 0 0 0 0 0 0 0 0 0 0 0 0 0 0 0 0
Wind_Speed
2 1 1 1 1 1 1 1 1 2 2 2 2 3 3 4 4 3 3 6 7 6 6 6 6 6 6 6 6 7 8 8 9 8 8 7 7 8 8 8 8 7 7
2 1 1 1 1 1 1 1 1 1 1 2 2 3 3 3 3 3 2 4 6 6 5 5 5 4 5 4 5 5 6 7 7 8 8 7 7 6 7 6 6 6 6
2 1 1 1 1 1 1 1 1 1 2 2 2 2 2 2 2 3 2 2 2 5 5 5 4 4 4 4 4 4 4 5 6 6 6 7 6 6 6 5 5 5 4
2 2 1 1 1 1 1 1 1 1 1 1 1 1 2 2 2 1 2 2 1 2 3 5 5 4 3 3 3 4 4 4 5 5 5 5 5 5 4 4 4 3 3
2 1 1 1 1 1 1 1 1 1 1 1 1 1 1 1 1 1 1 2 2 2 1 2 4 4 3 2 2 2 3 3 4 4 4 4 4 4 4 3 2 2 3
1 1 1 1 1 1 1 1 1 1 1 1 1 2 1 1 1 1 1 1 1 1 1 1 1 2 3 2 1 0 1 1 2 2 2 2 2 3 4 4 2 2 1
1 1 1 1 1 1 1 1 1 2 1 1 2 1 2 1 0 0 1 0 1 1 1 1 1 0 1 1 1 0 0 0 0 1 1 1 1 2 2 3 4 3 2
1 1 1 1 1 1 2 1 1 1 0 1 1 1 0 1 1 1 0 0 0 0 0 1 0 0 0 0 1 1 1 1 1 1 1 1 1 2 2 2 3 4 3
1 1 1 1 2 2 2 2 2 2 1 1 0 1 2 2 1 1 1 1 0 0 0 0 0 0 0 0 0 1 2 2 3 2 2 3 3 3 3 3 4 4 4
1 1 1 1 2 2 2 2 2 1 2 1 1 1 1 1 1 1 2 1 1 1 1 1 0 0 0 1 1 1 2 3 3 4 4 4 3 4 4 4 5 5 5
1 1 1 1 1 1 2 2 1 1 1 2 2 1 1 1 1 1 2 2 1 1 1 1 1 1 1 1 1 0 1 3 4 4 5 5 5 5 5 5 5 5 6
1 1 1 1 1 1 2 2 2 2 2 2 2 1 1 1 1 1 2 2 2 2 2 1 1 1 1 1 1 1 2 3 4 5 5 5 6 6 6 6 6 6 7
2 2 2 2 1 1 2 2 2 2 2 2 2 2 2 2 1 1 1 2 2 2 1 2 1 1 1 1 1 2 3 4 5 6 6 6 6 6 6 7 7 7 7
2 2 2 2 2 2 2 2 2 2 2 2 3 2 1 2 1 1 2 1 2 2 2 3 1 2 1 1 2 2 3 5 6 6 7 7 6 6 6 6 7 7 7
1 1 2 2 2 2 2 2 2 3 2 3 3 2 2 2 2 2 2 2 3 3 3 3 2 1 1 1 3 2 2 5 7 7 7 7 7 7 7 7 7 7 7
1 2 2 2 2 2 2 2 2 2 2 3 2 2 3 2 2 2 2 2 2 3 4 2 2 1 1 2 4 2 3 6 7 8 8 8 8 8 8 7 7 8 8
2 2 2 2 2 2 2 2 3 3 3 3 3 3 3 3 2 2 2 2 2 2 4 3 1 1 1 2 3 2 3 3 4 8 9 9 9 9 9 8 8 8 8
2 2 2 3 3 3 3 3 4 4 4 4 4 4 4 3 3 3 2 3 3 3 3 4 2 2 3 3 3 3 3 4 3 7 10 10 10 10 9 9 9 9 9
2 2 2 3 3 3 3 4 4 3 4 4 4 4 4 4 4 3 3 3 2 3 2 3 3 2 2 2 2 3 4 3 4 5 8 10 10 10 10 10 10 10 10
2 3 3 3 3 3 4 3 3 3 4 4 4 4 4 5 5 4 3 3 3 2 2 3 3 2 2 2 2 2 3 3 4 4 6 7 9 10 11 11 11 11 11
2 2 3 3 3 3 4 4 4 4 4 4 4 5 5 5 6 5 4 3 3 3 3 3 3 3 3 2 3 2 3 3 4 3 3 4 4 4 6 9 11 11 11
2 2 3 3 4 4 6 7 5 4 4 5 5 5 4 5 6 7 8 7 6 5 5 4 4 5 5 3 3 3 3 3 4 2 2 5 3 4 4 4 9 11 11
2 2 3 3 4 5 7 8 8 4 4 4 4 4 4 4 5 4 5 7 7 8 8 5 5 6 5 4 3 4 4 4 5 3 3 5 3 4 4 5 10 12 11
2 2 3 3 3 4 7 7 7 4 3 3 4 4 4 4 4 4 3 3 3 4 5 5 5 5 5 4 4 4 4 4 4 3 3 4 3 4 5 4 9 10 10
2 2 3 3 3 4 7 7 6 2 2 3 3 3 4 4 6 7 4 4 4 3 5 6 7 7 8 8 6 3 3 4 5 4 2 3 3 4 4 4 5 8 9
3 3 3 3 3 4 6 7 6 2 3 3 3 3 5 6 7 7 4 4 4 4 3 3 4 5 4 5 7 5 4 4 4 4 3 2 2 2 4 3 2 3 4
Wind_Direction
99 93 89 80 82 93 95 67 62 57 52 46 48 51 43 44 54 62 56 54 56 58 67 71 68 68 69 72 70 76 76 74 73 75 74 76 76 76 74 73 71 73 75
93 104 103 96 84 79 77 82 83 74 61 51 49 48 51 47 57 63 68 54 52 52 53 58 59 62 64 67 70 73 81 81 78 74 70 71 74 75 74 71 68 65 66
87 87 101 105 93 83 71 69 69 66 67 55 51 47 47 50 60 61 66 68 55 52 53 51 52 58 60 60 70 74 84 85 81 78 72 69 67 70 71 70 69 68 65
78 86 85 94 99 109 106 101 94 69 70 61 46 37 39 36 47 63 71 79 74 62 54 56 49 45 54 57 66 74 78 86 81 78 73 67 63 62 64 63 65 68 62
70 93 96 97 98 113 118 113 89 98 89 62 47 37 36 31 17 35 73 80 80 84 85 64 53 45 44 48 42 73 77 92 86 79 76 68 59 54 49 45 47 61 60
67 86 105 102 88 98 114 114 103 79 94 93 49 27 16 3 12 7 24 70 72 74 69 83 62 30 42 43 30 61 70 96 105 86 73 61 50 45 40 29 26 39 35
90 89 100 118 112 114 113 125 123 114 80 86 67 12 339 331 346 321 356 28 85 101 70 60 85 61 23 27 357 335 326 322 118 103 74 43 21 7 18 16 17 8 357
79 92 124 156 151 136 125 121 114 122 208 160 133 137 310 325 325 308 301 227 237 81 53 41 58 92 97 109 342 314 305 288 251 259 270 277 302 326 321 333 337 351 343
161 139 164 170 165 151 161 165 159 150 191 250 205 156 168 216 279 295 259 245 228 271 250 250 237 360 309 144 106 318 330 308 276 273 275 271 277 288 299 302 321 324 335
169 165 168 184 175 170 171 182 173 178 169 203 273 287 233 171 168 281 296 262 256 270 269 283 275 286 8 100 105 38 357 336 295 274 276 278 282 284 289 298 302 310 313
182 174 191 193 189 183 180 173 177 193 195 196 211 240 279 294 232 193 258 271 281 270 255 257 238 219 218 173 167 265 313 316 302 279 276 279 281 284 287 293 297 303 308
200 198 208 198 212 193 182 185 193 196 207 212 217 213 198 211 218 206 232 249 257 263 261 255 234 214 205 203 215 285 287 293 299 278 276 284 289 290 290 290 292 295 297
216 219 217 203 216 218 202 192 196 209 207 212 218 217 218 233 229 230 226 248 263 269 248 255 235 224 222 180 245 280 278 282 294 281 274 280 290 296 298 296 294 296 296
220 218 223 218 218 232 231 210 209 213 211 216 226 215 219 234 225 221 219 219 263 274 251 246 266 222 218 221 244 259 271 279 280 283 272 274 281 287 290 293 294 296 297
221 208 224 235 226 225 230 221 217 220 217 222 223 217 224 237 225 224 225 210 203 239 258 237 235 247 250 244 248 245 254 271 275 277 274 268 274 278 280 283 286 289 293
217 209 221 229 233 228 234 227 225 214 216 230 230 224 231 236 233 227 228 238 223 219 253 243 234 251 253 269 268 267 257 270 270 275 278 267 267 270 273 276 280 284 287
218 215 223 230 232 230 232 231 230 217 218 230 238 234 239 236 230 231 229 234 237 223 250 267 259 254 253 257 277 270 265 258 261 271 275 270 264 266 268 271 274 278 281
225 225 223 227 232 231 229 229 238 230 221 226 230 232 238 240 239 236 229 233 239 232 234 258 264 253 252 244 257 263 272 265 259 270 271 275 265 264 265 267 269 274 277
225 229 226 228 232 227 226 230 232 240 236 231 228 228 231 229 234 235 229 231 242 252 244 247 261 259 264 259 267 273 276 277 274 276 273 276 267 264 265 268 270 272 274
227 231 235 234 234 232 232 232 239 241 246 246 239 234 232 232 228 224 228 229 234 240 244 246 259 258 259 262 258 263 279 274 279 283 275 278 270 267 267 269 269 270 270
254 243 240 241 240 234 231 224 233 241 243 252 249 243 241 240 237 233 236 228 223 229 238 243 252 260 255 245 251 258 271 283 276 266 283 283 277 263 261 264 265 265 267
252 246 239 240 245 248 247 243 242 234 238 243 245 242 240 235 236 240 247 247 237 230 230 236 247 246 249 252 259 265 273 283 276 270 289 286 276 262 260 254 265 267 267
271 257 252 244 244 250 249 249 249 244 235 238 242 243 246 240 236 233 246 252 253 252 244 238 243 249 252 251 252 258 258 265 268 271 282 275 268 270 262 268 273 271 268
282 279 272 261 256 258 256 251 250 244 240 244 245 244 240 235 234 234 234 244 250 257 254 248 242 251 253 249 246 251 257 275 282 272 258 268 274 274 282 269 270 271 275
288 280 280 271 264 268 264 259 254 234 238 248 252 250 246 236 240 240 232 236 250 264 272 265 258 261 266 268 266 268 262 263 275 271 246 249 272 285 280 270 266 270 279
288 287 283 278 273 272 265 263 253 233 236 247 251 247 251 249 243 242 228 219 238 251 254 267 267 270 270 266 264 249 243 252 266 271 238 236 271 304 297 274 259 268 275